MGL232 ZMCK-UIII

Flight info

Callsign MGL232
Flight time N/A
Altitude 36100
Route TATIG2A TATIG Y345 SERNA/K0837F380 A815 IDENI IDENI5B
Aircraft CRJ7/M-SDFGIRWY/S

Departure

Time 2026-04-20 22:57
Airport Ulaanbaatar Chinggis Khaan International Airport (ZMCK)

Arrival

Time N/A
Airport Irkutsk International Airport (UIII)
Time Latitude Longitude Altitude Speed Heading
2026-04-20 22:36 47.65081 106.81897 4504 ft 0 kts 284°
2026-04-20 22:38 47.65081 106.81898 4504 ft 0 kts 284°
2026-04-20 22:51 47.65081 106.81899 4500 ft 0 kts 284°
2026-04-20 22:52 47.65081 106.81898 4500 ft 1 kts 284°
2026-04-20 22:52 47.65078 106.81854 4503 ft 6 kts 225°
2026-04-20 22:53 47.65025 106.81827 4504 ft 9 kts 194°
2026-04-20 22:53 47.65001 106.81824 4504 ft 10 kts 160°
2026-04-20 22:53 47.64976 106.81905 4503 ft 4 kts 101°
2026-04-20 22:53 47.65003 106.81912 4501 ft 13 kts 319°
2026-04-20 22:54 47.65004 106.81776 4500 ft 13 kts 264°
2026-04-20 22:54 47.65015 106.81647 4504 ft 12 kts 260°
2026-04-20 22:54 47.64982 106.81540 4500 ft 23 kts 244°
2026-04-20 22:54 47.64992 106.81299 4491 ft 22 kts 284°
2026-04-20 22:55 47.65023 106.81121 4491 ft 15 kts 285°
2026-04-20 22:55 47.65059 106.80917 4492 ft 17 kts 284°
2026-04-20 22:55 47.65016 106.80801 4493 ft 14 kts 182°
2026-04-20 22:55 47.64926 106.80903 4491 ft 19 kts 140°
2026-04-20 22:56 47.64860 106.81051 4491 ft 23 kts 105°
2026-04-20 22:56 47.64766 106.81584 4495 ft 85 kts 104°
2026-04-20 22:56 47.64644 106.82272 4490 ft 122 kts 104°
2026-04-20 22:56 47.64389 106.83718 4503 ft 164 kts 104°
2026-04-20 22:57 47.64080 106.85442 4868 ft 175 kts 105°
2026-04-20 22:57 47.63766 106.87114 5714 ft 165 kts 104°
2026-04-20 22:57 47.63556 106.88882 5992 ft 179 kts 75°
2026-04-20 22:57 47.64215 106.90321 6453 ft 168 kts 20°
2026-04-20 22:58 47.65292 106.90316 6956 ft 157 kts 325°
2026-04-20 22:58 47.65843 106.88974 7490 ft 157 kts 288°
2026-04-20 22:58 47.66115 106.87402 8093 ft 157 kts 287°
2026-04-20 22:58 47.66361 106.85820 8672 ft 157 kts 286°
2026-04-20 22:59 47.66581 106.84227 9131 ft 157 kts 285°
2026-04-20 22:59 47.66782 106.82634 9525 ft 157 kts 285°
2026-04-20 22:59 47.66972 106.81042 9915 ft 156 kts 285°
2026-04-20 22:59 47.67153 106.79476 10263 ft 156 kts 284°
2026-04-20 23:00 47.67334 106.77897 10620 ft 155 kts 284°
2026-04-20 23:00 47.67514 106.76326 10975 ft 154 kts 284°
2026-04-20 23:00 47.67699 106.74761 11314 ft 154 kts 284°
2026-04-20 23:00 47.68124 106.73360 11571 ft 153 kts 320°
2026-04-20 23:01 47.69200 106.73053 11822 ft 166 kts 351°
2026-04-20 23:01 47.70362 106.73116 12126 ft 168 kts 352°
2026-04-20 23:01 47.71564 106.73225 12379 ft 178 kts 353°
2026-04-20 23:01 47.72778 106.73377 12921 ft 174 kts 354°
2026-04-20 23:02 47.73987 106.73565 13350 ft 176 kts 354°
2026-04-20 23:02 47.75206 106.73774 13770 ft 177 kts 354°
2026-04-20 23:02 47.76436 106.74023 14163 ft 178 kts 354°
2026-04-20 23:02 47.77666 106.74264 14535 ft 179 kts 354°
2026-04-20 23:03 47.78902 106.74504 14896 ft 180 kts 354°
2026-04-20 23:03 47.80166 106.74749 15041 ft 188 kts 354°
2026-04-20 23:03 47.81469 106.75323 15055 ft 212 kts 26°
2026-04-20 23:03 47.82350 106.77198 15081 ft 242 kts 67°
2026-04-20 23:04 47.82332 106.79753 15084 ft 255 kts 110°
2026-04-20 23:04 47.81381 106.81944 15096 ft 252 kts 148°
2026-04-20 23:04 47.79890 106.83127 14894 ft 243 kts 170°
2026-04-20 23:04 47.78277 106.83941 14657 ft 244 kts 172°
2026-04-20 23:05 47.76659 106.84689 14489 ft 243 kts 173°
2026-04-20 23:05 47.75034 106.85297 14349 ft 237 kts 181°
2026-04-20 23:05 47.73415 106.85680 14191 ft 235 kts 183°
2026-04-20 23:05 47.71798 106.86011 14040 ft 234 kts 184°
2026-04-20 23:06 47.70205 106.86335 13879 ft 234 kts 184°
2026-04-20 23:06 47.68595 106.86647 13727 ft 232 kts 185°
2026-04-20 23:06 47.67101 106.86350 13475 ft 204 kts 225°
2026-04-20 23:06 47.66322 106.84896 13184 ft 171 kts 271°
2026-04-20 23:07 47.66362 106.83189 12970 ft 165 kts 282°
2026-04-20 23:07 47.66496 106.81492 12782 ft 165 kts 283°
2026-04-20 23:07 47.66655 106.79804 12598 ft 165 kts 283°
2026-04-20 23:07 47.66832 106.78114 12404 ft 165 kts 284°
2026-04-20 23:08 47.67021 106.76430 12080 ft 166 kts 284°
2026-04-20 23:08 47.67214 106.74737 11766 ft 166 kts 284°
2026-04-20 23:08 47.67407 106.73044 11458 ft 167 kts 284°
2026-04-20 23:08 47.67602 106.71348 11152 ft 167 kts 284°
2026-04-20 23:09 47.67887 106.69693 10845 ft 164 kts 300°
2026-04-20 23:09 47.68448 106.68216 10538 ft 165 kts 302°
2026-04-20 23:09 47.69048 106.66764 10239 ft 165 kts 304°
2026-04-20 23:09 47.69655 106.65317 9938 ft 166 kts 301°
2026-04-20 23:10 47.69811 106.63646 9459 ft 181 kts 256°
2026-04-20 23:10 47.68900 106.62206 8880 ft 211 kts 208°
2026-04-20 23:10 47.67407 106.62063 8507 ft 224 kts 165°
2026-04-20 23:10 47.66155 106.63337 8244 ft 219 kts 122°
2026-04-20 23:11 47.65635 106.65387 7930 ft 210 kts 97°
2026-04-20 23:11 47.65371 106.67511 7517 ft 209 kts 92°
2026-04-20 23:11 47.65406 106.69664 7008 ft 210 kts 79°
2026-04-20 23:11 47.65542 106.71791 6603 ft 201 kts 80°
2026-04-20 23:12 47.65651 106.73747 6172 ft 182 kts 82°
2026-04-20 23:12 47.65650 106.75580 5574 ft 170 kts 91°
2026-04-20 23:12 47.65527 106.77261 4942 ft 157 kts 100°
2026-04-20 23:12 47.65277 106.78782 4639 ft 150 kts 106°
2026-04-20 23:13 47.65001 106.80256 4495 ft 140 kts 105°
2026-04-20 23:13 47.64783 106.81480 4491 ft 107 kts 104°
2026-04-20 23:13 47.64695 106.82038 4495 ft 8 kts 51°
2026-04-20 23:13 47.64764 106.82028 4493 ft 21 kts
2026-04-20 23:14 47.64909 106.82070 4502 ft 20 kts 356°
2026-04-20 23:14 47.65029 106.81985 4504 ft 13 kts 331°
2026-04-20 23:14 47.65078 106.81913 4500 ft 5 kts 296°
2026-04-20 23:14 47.65081 106.81898 4501 ft 0 kts 284°